Skip Page Navigation
NASA JPL Caltech
NASA Logo - Jet Propulsion Laboratory + View the NASA Portal
+ Near-Earth Object (NEO) Program
Search JPL
JPL Home Earth Solar System Stars & Galaxies Technology
JPL Solar System Dynamics
BODIES ORBITS EPHEMERIDES TOOLS PHYSICAL DATA DISCOVERY FAQ SITE MAP
JPL Small-Body Database Browser
Search: [ help ]  
216115 (2006 SU19)
Classification: Apollo [NEO, PHA]          SPK-ID: 2216115
Ephemeris | Orbit Diagram | Orbital Elements | Physical Parameters | Discovery Circumstances | Close-Approach Data ]

[ hide orbit diagram ]
Orbit Diagram
Note: Make sure you have Java enabled on your browser to see the applet. This applet is provided as a 3D orbit visualization tool. The applet was implemented using 2-body methods, and hence should not be used for determining accurate long-term trajectories (over several years or decades) or planetary encounter circumstances. For accurate long-term ephemerides, please instead use our Horizons system.
Orbit Viewer

Additional Notes: the orbits shown in the applet are color coded. The planets are white lines, and the asteroid/comet is a blue line. The bright white line indicates the portion of the orbit that is above the ecliptic plane, and the darker portion is below the ecliptic plane. Likewise for the asteroid/comet orbit, the light blue indicates the portion above the ecliptic plane, and the dark blue the portion below the ecliptic plane.

Orbit Viewer applet originally written and kindly provided by Osamu Ajiki (AstroArts), and further modified by Ron Baalke (JPL).


Orbital Elements at Epoch 2456400.5 (2013-Apr-18.0) TDB
Reference: JPL 49 (heliocentric ecliptic J2000)
 Element Value Uncertainty (1-sigma)   Units 
e .5862495414083557 7.6107e-08  
a 1.526929285182974 3.0378e-08 AU
q .6317676919814672 1.1766e-07 AU
i 2.090771121519402 6.9239e-06 deg
node 152.2553562449543 0.00026729 deg
peri 10.54098749894403 0.00026851 deg
M 58.79654405886271 2.7583e-05 deg
tp 2456287.942066048885
(2012-Dec-26.44206605)
5.0513e-05 JED
period 689.1707135343685
1.89
2.0567e-05
5.631e-08
d
yr
n .522366944691777 1.5589e-08 deg/d
Q 2.422090878384481 4.8187e-08 AU
  Orbit Determination Parameters
   # obs. used (total)      175  
   data-arc span      1780 days (4.87 yr)  
   first obs. used      2006-09-18  
   last obs. used      2011-08-03  
   planetary ephem.      DE405  
   SB-pert. ephem.      SB405-CPV-2  
   condition code      0  
   fit RMS      .58623  
   data source      ORB  
   producer      Otto Matic  
   solution date      2013-Apr-29 15:40:39  

Additional Information
 Earth MOID = .0350948 AU 
 T_jup = 4.285 
[ show covariance matrix ]

Ephemeris | Orbit Diagram | Orbital Elements | Physical Parameters | Discovery Circumstances | Close-Approach Data ]

Physical Parameter Table
Parameter Symbol Value Units Sigma Reference Notes
absolute magnitude H 18.865 mag .47861 49 autocmod 2.5c

216115 (2006 SU19)          Discovered 2006-Sep-18 by Spacewatch at Kitt Peak (291)
Reference: 20090607/Numbers.arcLast Updated: 2009-06-08

[ show close-approach data ]
Ephemeris | Orbit Diagram | Orbital Elements | Physical Parameters | Discovery Circumstances | Close-Approach Data ]
ABOUT SSD CREDITS/AWARDS PRIVACY/COPYRIGHT GLOSSARY LINKS
FirstGov 2013-Jun-20 12:23 UT
(server date/time)  
NASA Home Page
Site Manager:   Donald K. Yeomans
Webmaster  Alan B. Chamberlin